Wind_Speed
20 19 18 20 21 24 24 25 25 27 28 27 24 16 13 15 17 13 12 13 12 9 8 5 5 4 6 2 5 7 7 10 10 11 16 20 20 20 14 15 20 18 17 25 28 31 30
18 18 16 17 18 21 23 24 25 27 28 27 19 16 17 19 17 11 13 14 12 7 4 3 4 6 4 2 2 3 9 11 14 20 23 20 19 20 19 18 16 21 25 26 30 32 33
18 18 19 19 20 19 21 23 25 27 28 25 17 18 21 19 16 15 15 13 8 3 3 4 5 7 0 3 2 8 11 17 22 17 17 14 16 17 19 18 23 21 19 20 19 19 23
21 21 22 21 21 20 21 23 25 27 28 22 17 23 20 18 15 17 15 11 5 5 5 5 6 3 1 4 9 11 17 19 11 13 16 20 20 22 20 20 23 19 18 16 23 17 22
21 22 23 23 23 24 24 24 25 27 28 21 16 23 22 21 14 17 14 9 8 6 6 10 8 1 2 5 13 21 11 13 18 21 18 16 15 16 16 10 12 8 13 17 25 16 21
21 21 21 22 23 24 25 26 27 28 29 23 14 22 22 22 13 16 11 8 7 9 6 3 1 2 0 10 21 11 10 18 23 18 16 13 7 2 4 6 11 15 16 20 20 19 19
21 20 21 22 23 23 25 26 27 29 30 24 12 21 20 21 13 14 9 3 3 1 2 3 2 3 8 15 12 8 17 24 7 16 8 7 2 7 12 11 16 16 18 21 24 20 22
20 21 20 21 23 23 22 25 26 29 31 22 13 21 20 20 11 15 8 3 3 4 1 2 3 6 5 10 10 11 17 12 16 11 8 6 9 6 6 10 12 15 19 22 25 20 20
21 20 22 22 22 24 24 23 26 28 29 21 16 20 20 17 10 17 14 6 2 9 3 2 2 3 8 14 8 14 18 12 8 8 10 10 13 7 10 10 15 15 15 22 19 20 21
20 21 22 22 22 23 25 24 26 26 26 20 13 23 18 16 7 12 8 6 6 5 2 4 2 1 8 18 3 11 17 9 5 8 11 7 6 13 12 10 11 15 14 23 22 16 12
20 20 20 21 23 24 25 27 25 26 27 24 11 18 19 18 8 10 8 1 8 2 2 3 2 2 14 9 12 4 15 6 8 13 4 8 18 18 7 7 11 19 19 15 16 17 13
21 20 19 20 21 21 23 27 27 27 27 26 10 12 19 18 12 14 4 5 4 1 3 1 1 7 10 8 9 6 12 6 8 10 9 15 24 3 5 7 16 16 8 18 15 7 9
21 20 19 18 19 19 20 24 26 25 27 29 13 6 16 18 16 12 2 4 1 2 4 4 3 6 12 4 7 5 9 3 5 7 12 13 10 4 7 8 8 12 13 4 2 3 4
21 18 17 17 18 18 20 23 27 27 28 29 11 5 14 22 18 11 3 2 2 2 3 6 5 14 4 4 3 5 6 4 6 5 7 6 7 6 10 3 4 4 3 4 6 4 8
23 20 17 16 17 18 19 21 26 26 28 30 7 4 5 19 13 8 1 2 2 3 3 7 12 3 3 4 4 5 6 2 1 3 2 4 5 19 2 2 3 7 5 9 5 14 6
24 22 16 15 17 17 18 20 25 26 26 27 6 1 5 14 7 8 1 2 2 1 3 2 3 1 3 6 6 7 3 4 1 2 4 5 8 8 7 7 4 5 3 5 4 6 6
27 24 18 15 15 17 17 19 23 24 25 23 5 3 2 7 5 4 2 2 3 4 3 3 4 4 6 6 4 5 4 2 5 5 8 7 5 8 11 5 1 4 3 3 3 4 4
29 26 22 18 16 16 16 17 20 22 26 25 5 2 3 8 2 4 1 1 4 5 7 5 5 9 8 5 6 5 4 1 12 7 5 4 3 4 10 4 2 6 1 2 1 6 3
28 25 23 19 16 15 14 15 18 17 22 24 11 5 5 7 2 3 2 4 6 3 5 3 5 7 4 3 4 7 6 1 10 3 2 5 2 4 4 4 2 3 2 0 5 5 3
29 27 25 22 17 15 13 12 15 14 15 15 7 3 3 5 3 2 2 5 3 11 10 9 7 8 5 6 9 7 4 2 5 11 16 4 3 5 6 10 3 2 2 2 2 3 7
30 28 26 23 20 15 13 12 13 12 11 10 4 2 1 3 1 5 4 4 5 4 5 6 4 10 5 4 5 8 10 5 13 4 4 3 4 7 8 10 5 4 3 2 1 2 3
32 30 27 24 21 17 15 14 14 9 10 6 4 3 4 7 9 6 6 6 8 5 5 6 11 7 7 9 9 16 16 12 6 5 5 4 4 3 6 8 7 9 5 7 3 0 4
34 32 29 26 22 20 18 17 16 9 10 6 9 11 5 7 4 3 4 6 6 4 13 18 11 8 11 15 19 18 19 19 10 8 10 5 2 1 5 2 3 6 8 4 3 3 5
35 31 30 28 25 23 21 20 18 12 12 15 15 14 7 5 8 7 7 9 12 11 12 13 15 13 7 13 15 19 29 25 7 4 8 3 3 2 5 3 1 5 3 3 2 4 2
33 32 31 30 29 26 24 23 21 16 16 19 22 23 9 4 13 12 18 14 18 19 16 17 18 14 9 6 4 6 4 4 6 6 5 3 2 3 1 3 2 1 4 5 5 4 3
34 32 31 31 31 29 27 26 24 20 19 20 28 25 18 4 9 20 4 10 6 6 4 13 11 7 5 3 3 3 4 2 2 5 6 6 2 3 3 3 6 3 3 4 3 3 2
37 37 37 33 32 32 31 30 26 24 23 22 32 30 30 10 17 26 8 6 8 4 3 2 5 5 10 3 4 4 5 5 4 5 5 3 3 9 10 10 3 3 7 7 4 4 1
42 42 42 39 35 34 33 31 29 27 25 27 32 32 33 20 27 25 23 15 7 8 4 6 2 5 5 4 3 3 3 3 1 4 5 5 3 3 2 3 8 3 8 4 2 1 2
45 45 43 40 38 36 35 33 32 30 28 27 32 34 34 30 17 17 22 28 31 29 15 14 5 7 11 5 2 1 2 2 4 3 4 2 5 3 5 3 6 7 11 7 4 1 6
Wind_Direction
33 27 25 17 12 11 15 11 9 7 5 0 357 6 15 4 355 357 356 348 348 344 340 348 13 95 73 314 67 300 284 302 317 308 307 303 302 295 276 285 290 280 278 275 273 273 272
27 21 20 17 10 15 6 5 3 4 2 360 11 19 7 358 355 356 349 344 343 331 0 25 62 113 64 49 357 326 314 322 311 303 300 294 287 296 291 282 278 287 283 278 277 276 278
26 22 18 19 14 11 5 3 6 4 5 1 17 6 358 359 5 358 346 353 1 12 76 49 98 90 58 85 8 313 305 306 309 303 296 294 290 290 292 298 281 290 296 298 277 265 265
28 29 25 24 20 16 9 7 7 6 6 6 11 3 1 8 9 356 360 8 28 95 77 79 93 87 339 295 335 337 301 309 311 299 294 295 286 280 279 276 283 285 272 275 274 267 271
28 30 26 22 20 18 15 12 9 7 6 5 6 5 1 3 4 6 6 33 83 77 63 93 50 49 126 334 335 325 330 320 310 309 301 289 279 269 278 281 286 241 265 268 283 269 265
28 26 20 16 14 13 12 12 12 6 4 3 1 1 1 360 9 10 18 63 75 39 61 65 8 297 138 336 330 341 335 323 310 302 298 279 223 233 265 260 274 296 298 292 285 296 281
21 19 18 17 14 10 8 10 8 7 2 3 3 2 1 359 6 15 15 31 43 116 47 89 60 307 305 320 340 335 334 328 349 321 295 303 224 253 265 287 293 293 291 290 288 290 287
12 12 13 14 11 8 7 9 9 6 2 4 11 360 2 357 2 21 42 140 166 179 248 283 286 316 303 332 313 336 346 345 325 321 318 337 282 282 307 288 285 281 284 277 277 272 275
3 7 6 8 9 10 9 8 10 9 6 6 13 8 4 357 5 11 20 28 149 151 255 182 297 321 319 328 311 340 357 337 324 311 347 305 274 297 299 289 289 280 274 276 274 293 275
353 2 0 360 5 8 8 8 7 8 6 3 6 10 7 6 12 8 339 10 145 137 250 142 172 214 342 334 226 339 358 348 322 318 324 295 274 320 317 304 329 312 310 303 288 290 269
349 353 350 356 358 3 1 3 5 3 4 359 335 359 6 8 16 4 339 62 141 96 356 117 107 325 345 343 310 101 346 326 296 304 291 264 302 296 290 322 328 298 316 295 293 282 294
341 344 342 352 355 359 0 360 2 360 359 356 329 358 10 14 355 349 1 130 128 235 296 30 133 345 350 315 341 296 335 357 319 315 288 314 292 31 8 339 310 351 295 282 263 240 254
339 337 337 343 346 348 358 359 2 358 354 355 337 350 358 10 356 345 5 89 264 45 44 2 338 353 333 310 312 329 313 50 41 352 332 318 329 128 35 304 301 350 327 320 267 199 252
346 337 334 336 340 344 356 357 356 356 353 354 337 254 3 358 351 350 62 246 21 105 26 9 319 315 258 0 299 304 304 14 48 17 290 341 326 21 359 108 271 329 1 312 290 300 294
348 345 335 334 337 342 350 353 354 355 353 354 355 238 356 346 358 6 355 24 356 28 43 333 310 302 329 203 355 330 326 76 100 66 44 312 269 320 103 111 8 313 25 291 264 244 258
351 345 336 333 334 338 345 351 352 352 355 352 360 150 258 349 4 355 311 49 309 62 351 331 285 61 294 330 322 358 290 179 73 19 65 279 289 294 341 149 76 118 37 1 315 302 318
350 344 338 331 331 333 341 346 350 349 357 359 21 300 281 355 47 35 68 346 291 284 276 244 296 290 259 308 307 295 251 284 64 16 329 258 215 295 306 24 85 356 30 344 251 256 312
346 342 335 328 329 331 338 341 341 348 355 5 6 271 325 359 238 123 62 87 324 275 233 252 268 263 258 304 288 270 252 297 43 24 320 311 256 284 298 164 163 90 84 92 16 310 308
338 337 331 325 324 326 333 336 337 351 359 355 338 294 320 22 42 360 45 276 214 241 232 210 257 223 334 284 309 271 273 306 336 5 326 344 286 309 313 327 204 102 34 48 258 241 232
330 333 330 324 317 317 318 325 334 343 358 354 349 330 321 42 79 50 5 275 242 216 248 240 257 263 272 256 234 259 249 273 190 258 289 106 244 200 248 263 161 283 24 23 285 276 328
323 324 325 320 313 306 302 301 313 332 348 355 356 27 289 314 293 325 169 249 257 271 215 209 267 239 215 259 288 257 269 304 301 322 101 156 262 262 276 293 256 203 182 142 117 260 252
317 316 317 315 308 296 290 290 292 310 317 300 258 225 226 271 288 250 235 200 216 216 181 237 217 256 263 241 224 274 279 278 256 182 166 189 260 25 281 261 211 247 183 167 188 270 284
311 310 310 309 304 294 285 285 284 283 289 274 241 242 218 232 216 216 226 211 216 158 230 231 248 268 254 261 274 286 291 288 266 261 270 231 210 326 260 173 324 282 183 192 164 178 172
306 307 306 303 301 291 283 278 275 266 255 265 267 245 192 241 218 220 234 229 248 225 232 240 246 257 248 286 297 282 265 259 202 224 204 211 158 216 257 8 287 244 138 150 164 177 181
304 304 304 300 296 291 281 275 271 260 256 260 265 259 225 245 241 258 254 255 263 247 255 262 260 268 291 337 281 285 274 152 235 197 181 142 174 279 203 226 249 246 192 178 160 257 158
305 304 303 301 295 291 281 273 268 261 259 262 264 266 241 255 218 251 290 252 244 242 258 242 230 234 197 229 239 234 251 178 226 148 159 160 80 146 352 272 265 200 143 101 77 267 130
298 299 299 298 295 289 284 273 267 261 258 263 267 267 244 242 255 254 234 235 191 194 232 313 187 173 182 212 233 234 240 169 220 177 172 194 202 219 235 256 229 185 143 135 100 219 133
288 289 292 292 291 288 283 277 268 268 260 262 268 270 253 251 260 251 254 232 210 198 208 153 158 204 172 224 238 237 236 210 66 196 181 173 218 220 243 265 267 116 142 203 161 59 349
290 289 291 291 288 289 282 274 268 267 267 268 271 275 270 235 254 248 262 257 249 247 221 190 204 154 201 209 225 342 264 214 188 249 356 257 188 191 174 224 147 96 111 111 117 347 2
Height
1531 1528 1526 1523 1520 1517 1513 1510 1507 1503 1499 1496 1491 1487 1486 1484 1481 1478 1476 1475 1473 1472 1471 1471 1471 1472 1473 1475 1477 1475 1475 1474 1474 1473 1473 1472 1469 1468 1465 1462 1460 1456 1452 1450 1447 1443 1441
1532 1529 1526 1523 1521 1518 1514 1511 1507 1502 1499 1495 1490 1488 1486 1483 1479 1477 1475 1473 1471 1470 1470 1470 1471 1471 1473 1475 1476 1475 1473 1472 1472 1472 1470 1469 1468 1466 1461 1459 1457 1453 1449 1445 1443 1439 1435
1532 1530 1526 1523 1520 1518 1514 1510 1506 1502 1497 1494 1490 1488 1485 1481 1478 1475 1473 1471 1469 1469 1469 1470 1470 1471 1474 1477 1475 1475 1472 1471 1469 1468 1466 1465 1466 1465 1461 1457 1453 1450 1446 1439 1433 1433 1429
1533 1530 1526 1523 1520 1517 1514 1510 1506 1502 1497 1494 1491 1488 1484 1480 1477 1474 1471 1469 1468 1469 1470 1470 1470 1473 1473 1473 1474 1473 1469 1467 1466 1466 1464 1462 1461 1460 1459 1455 1450 1450 1444 1443 1424 1431 1428
1533 1531 1527 1524 1521 1517 1514 1510 1506 1502 1497 1494 1491 1487 1483 1480 1477 1473 1471 1470 1469 1470 1470 1470 1472 1473 1473 1474 1473 1469 1466 1466 1464 1462 1460 1457 1457 1455 1455 1455 1452 1446 1444 1438 1423 1425 1421
1535 1532 1528 1525 1522 1518 1514 1511 1506 1502 1497 1493 1490 1487 1482 1479 1476 1473 1471 1471 1472 1471 1471 1472 1473 1477 1475 1474 1470 1467 1467 1464 1461 1457 1455 1452 1451 1453 1453 1453 1449 1440 1439 1430 1424 1417 1415
1536 1533 1529 1526 1522 1519 1515 1511 1506 1502 1497 1492 1489 1486 1482 1479 1476 1474 1471 1472 1475 1476 1473 1474 1476 1475 1475 1474 1469 1467 1464 1461 1457 1456 1452 1448 1453 1456 1446 1443 1440 1436 1434 1430 1417 1415 1413
1537 1534 1530 1527 1523 1519 1515 1511 1507 1502 1496 1491 1488 1486 1482 1478 1476 1474 1471 1471 1472 1475 1476 1474 1474 1475 1475 1473 1469 1467 1464 1461 1457 1453 1447 1450 1449 1438 1440 1438 1436 1434 1433 1426 1411 1410 1406
1538 1534 1530 1526 1523 1519 1515 1511 1507 1502 1496 1492 1489 1485 1482 1478 1475 1473 1471 1471 1471 1472 1474 1474 1474 1474 1474 1472 1468 1466 1464 1461 1456 1452 1450 1454 1442 1438 1437 1435 1433 1430 1428 1420 1415 1405 1397
1538 1533 1529 1526 1523 1519 1515 1511 1506 1502 1497 1492 1489 1486 1482 1478 1477 1475 1473 1472 1472 1473 1473 1474 1472 1473 1472 1469 1467 1465 1463 1464 1459 1454 1450 1445 1434 1435 1434 1434 1433 1428 1417 1415 1407 1406 1396
1536 1532 1529 1525 1522 1518 1514 1511 1506 1502 1497 1492 1489 1486 1481 1478 1478 1475 1475 1472 1472 1475 1467 1471 1471 1470 1469 1471 1469 1466 1465 1461 1459 1454 1454 1447 1435 1432 1432 1431 1431 1428 1418 1410 1404 1399 1396
1534 1531 1528 1524 1521 1517 1514 1510 1506 1502 1497 1492 1487 1486 1482 1480 1477 1475 1472 1472 1475 1475 1466 1469 1470 1471 1469 1467 1467 1465 1464 1461 1455 1452 1442 1441 1427 1428 1430 1432 1429 1423 1418 1405 1395 1397 1393
1532 1529 1526 1522 1519 1516 1512 1508 1505 1500 1495 1490 1485 1485 1482 1480 1479 1475 1473 1474 1473 1466 1468 1472 1473 1471 1471 1467 1466 1464 1462 1464 1469 1470 1455 1441 1431 1428 1432 1432 1425 1430 1422 1417 1386 1385 1382
1529 1526 1524 1521 1518 1515 1511 1507 1504 1499 1493 1487 1482 1483 1481 1478 1477 1474 1474 1476 1472 1473 1473 1476 1473 1472 1470 1468 1465 1462 1461 1466 1465 1468 1468 1462 1453 1433 1433 1439 1442 1433 1434 1428 1437 1409 1381
1527 1524 1521 1519 1516 1513 1509 1506 1502 1498 1493 1486 1482 1482 1482 1480 1477 1475 1477 1476 1478 1481 1483 1483 1475 1470 1464 1466 1467 1462 1460 1467 1468 1468 1480 1473 1446 1433 1432 1436 1437 1442 1443 1435 1431 1407 1404
1526 1522 1519 1517 1514 1511 1508 1505 1501 1498 1493 1487 1483 1482 1482 1479 1476 1475 1475 1480 1480 1482 1483 1483 1482 1475 1479 1469 1473 1471 1462 1465 1465 1465 1465 1465 1456 1432 1428 1434 1437 1443 1442 1451 1432 1415 1392
1525 1521 1518 1516 1513 1510 1507 1504 1501 1497 1493 1487 1483 1482 1481 1479 1477 1476 1480 1483 1482 1482 1483 1484 1481 1480 1477 1476 1470 1469 1463 1459 1461 1463 1463 1460 1459 1442 1433 1447 1454 1448 1455 1455 1449 1435 1413
1525 1521 1517 1514 1511 1508 1505 1502 1500 1496 1491 1486 1484 1482 1479 1477 1477 1476 1482 1485 1486 1483 1482 1482 1480 1479 1478 1475 1474 1469 1463 1457 1459 1461 1466 1456 1459 1458 1444 1445 1444 1449 1457 1459 1456 1448 1435
1523 1518 1515 1511 1509 1506 1504 1502 1499 1496 1492 1488 1485 1482 1479 1478 1480 1479 1480 1481 1482 1480 1479 1479 1477 1473 1472 1475 1483 1466 1461 1456 1457 1460 1463 1459 1460 1466 1449 1453 1445 1449 1454 1458 1456 1447 1439
1520 1516 1512 1509 1506 1504 1501 1500 1497 1495 1493 1490 1487 1484 1480 1479 1481 1482 1482 1478 1476 1475 1475 1475 1474 1473 1474 1472 1470 1468 1461 1456 1457 1457 1457 1458 1460 1464 1463 1453 1453 1453 1455 1454 1456 1444 1451
1516 1512 1509 1505 1502 1500 1499 1497 1495 1493 1492 1491 1489 1488 1487 1483 1480 1480 1482 1476 1475 1475 1473 1473 1471 1470 1472 1476 1467 1460 1455 1455 1454 1452 1455 1458 1459 1452 1446 1441 1438 1445 1450 1457 1456 1461 1455
1511 1507 1504 1501 1498 1496 1495 1493 1492 1490 1490 1489 1488 1487 1485 1481 1478 1477 1474 1469 1468 1468 1471 1467 1467 1464 1463 1464 1461 1458 1455 1453 1451 1451 1453 1455 1454 1452 1458 1437 1434 1437 1445 1454 1453 1456 1454
1505 1502 1499 1496 1493 1491 1490 1488 1487 1487 1487 1484 1482 1482 1481 1476 1473 1473 1466 1461 1459 1463 1459 1458 1458 1459 1456 1453 1451 1448 1447 1445 1445 1446 1447 1448 1449 1458 1457 1440 1448 1442 1448 1454 1460 1461 1463
1497 1494 1492 1489 1487 1485 1484 1483 1481 1481 1482 1479 1476 1475 1475 1468 1467 1463 1457 1456 1455 1455 1455 1452 1453 1453 1449 1448 1446 1444 1438 1436 1437 1438 1440 1445 1449 1449 1456 1455 1462 1448 1442 1446 1451 1457 1454
1489 1487 1484 1481 1479 1478 1476 1476 1475 1475 1475 1473 1470 1468 1466 1458 1456 1453 1450 1447 1446 1447 1447 1444 1444 1445 1445 1445 1445 1437 1429 1430 1429 1431 1437 1440 1443 1451 1460 1456 1447 1446 1441 1445 1450 1456 1450
1482 1479 1476 1473 1471 1469 1468 1467 1467 1467 1468 1465 1461 1461 1458 1455 1446 1443 1444 1442 1441 1439 1439 1435 1436 1440 1442 1443 1440 1448 1434 1424 1428 1430 1433 1439 1444 1453 1457 1449 1440 1440 1441 1442 1444 1452 1446
1473 1470 1467 1465 1462 1460 1459 1458 1459 1459 1460 1458 1452 1452 1449 1443 1434 1439 1437 1436 1435 1434 1433 1432 1433 1437 1438 1438 1436 1431 1424 1415 1428 1434 1441 1438 1442 1440 1436 1425 1427 1440 1439 1442 1452 1450 1443
1463 1460 1457 1455 1452 1450 1449 1449 1449 1450 1450 1449 1442 1442 1441 1434 1427 1428 1428 1428 1427 1427 1426 1428 1432 1430 1433 1434 1427 1418 1417 1419 1423 1421 1431 1430 1434 1436 1429 1422 1425 1436 1439 1442 1442 1441 1442
1451 1448 1445 1443 1441 1440 1438 1438 1438 1439 1438 1439 1434 1431 1430 1426 1420 1418 1419 1419 1419 1418 1419 1420 1419 1420 1421 1422 1419 1420 1418 1419 1421 1422 1423 1433 1430 1435 1435 1434 1434 1434 1435 1438 1439 1439 1440